Bermuda Spirit — C6XT2 — position and weather

sailwx.info

Track history (hours):
 
Tides and Currents Weather Stations Pressure Air Temp Water Temp Dewpoint Dewpoint Depression Visibility Wind Speed Wind Dir Waves Ship Positions

Bermuda Spirit

Last reported at 2014-Oct-26 09:23 UTC. Time now 2014-Oct-30 13:00 UTC.
Position N 35°39' E 032°37'.

Length 274 m; draft 16.1 m.

Type: Tanker. MMSI: 311020900.

Date/timePositionNaut miles runAvg speedWind from/ knotsBaromVisibWave heightAir tempDewpointWater temp
2014-Oct-26 09:23N 35°39' E 032°37'1212.0
2014-Oct-26 08:26N 35°42' E 032°51'  
2014-Oct-22 02:24N 35°45' E 032°56'17 9.3
2014-Oct-22 00:33N 35°44' E 032°34'208 9.7
2014-Oct-21 03:05N 35°45' E 028°18'90 8.4
2014-Oct-20 16:24N 36°35' E 026°46'10 9.8
2014-Oct-20 15:24N 36°45' E 026°44'19 9.8
2014-Oct-20 13:25N 37°03' E 026°38'8 9.4
2014-Oct-20 12:33N 37°08' E 026°29'9 9.3
2014-Oct-20 11:33N 37°12' E 026°19'9 9.2
2014-Oct-20 10:33N 37°17' E 026°09'9 9.2
2014-Oct-20 09:33N 37°23' E 025°60'8 8.5
2014-Oct-20 08:33N 37°28' E 025°51'1212.5
2014-Oct-20 07:33N 37°38' E 025°43'1616.2
2014-Oct-20 06:33N 37°53' E 025°35'1615.7
2014-Oct-20 05:33N 38°08' E 025°27'1111.0
2014-Oct-20 04:33N 38°18' E 025°21'95 9.5
2014-Oct-19 18:33N 39°38' E 024°16'10 9.1
2014-Oct-19 17:27N 39°41' E 024°03'  
2014-Oct-17 04:30N 39°43' E 023°55'1312.8
2014-Oct-17 03:29N 39°39' E 024°11'1111.7
2014-Oct-17 02:33N 39°33' E 024°23'6312.6
2014-Oct-16 21:33N 38°41' E 025°09'1312.6
2014-Oct-16 20:33N 38°30' E 025°15'1715.9
2014-Oct-16 19:28N 38°14' E 025°24'1716.5
2014-Oct-16 18:27N 37°58' E 025°32'1416.2
2014-Oct-16 17:33N 37°45' E 025°39'1616.3
2014-Oct-16 16:33N 37°30' E 025°48'1716.7
2014-Oct-16 15:33N 37°20' E 026°05'1716.6
2014-Oct-16 14:33N 37°11' E 026°22'1615.9
2014-Oct-16 13:33N 37°01' E 026°38'1616.3
2014-Oct-16 12:33N 36°45' E 026°43'1716.6
2014-Oct-16 11:33N 36°29' E 026°48'1716.5
2014-Oct-16 10:33N 36°17' E 027°02'1616.5
2014-Oct-16 09:33N 36°05' E 027°16'  
Track history (hours):
 
Tides and Currents Weather Stations Pressure Air Temp Water Temp Dewpoint Dewpoint Depression Visibility Wind Speed Wind Dir Waves Ship Positions

Bermuda Spirit

Last reported at 2014-Oct-26 09:23 UTC. Time now 2014-Oct-30 13:00 UTC.
Position N 35°39' E 032°37'.

Length 274 m; draft 16.1 m.

Type: Tanker. MMSI: 311020900.

Date/timePositionNaut miles runAvg speedWind from/ knotsBaromVisibWave heightAir tempDewpointWater temp
2014-Oct-26 09:23N 35°39' E 032°37'1212.0
2014-Oct-26 08:26N 35°42' E 032°51'  
2014-Oct-22 02:24N 35°45' E 032°56'17 9.3
2014-Oct-22 00:33N 35°44' E 032°34'208 9.7
2014-Oct-21 03:05N 35°45' E 028°18'90 8.4
2014-Oct-20 16:24N 36°35' E 026°46'10 9.8
2014-Oct-20 15:24N 36°45' E 026°44'19 9.8
2014-Oct-20 13:25N 37°03' E 026°38'8 9.4
2014-Oct-20 12:33N 37°08' E 026°29'9 9.3
2014-Oct-20 11:33N 37°12' E 026°19'9 9.2
2014-Oct-20 10:33N 37°17' E 026°09'9 9.2
2014-Oct-20 09:33N 37°23' E 025°60'8 8.5
2014-Oct-20 08:33N 37°28' E 025°51'1212.5
2014-Oct-20 07:33N 37°38' E 025°43'1616.2
2014-Oct-20 06:33N 37°53' E 025°35'1615.7
2014-Oct-20 05:33N 38°08' E 025°27'1111.0
2014-Oct-20 04:33N 38°18' E 025°21'95 9.5
2014-Oct-19 18:33N 39°38' E 024°16'10 9.1
2014-Oct-19 17:27N 39°41' E 024°03'  
2014-Oct-17 04:30N 39°43' E 023°55'1312.8
2014-Oct-17 03:29N 39°39' E 024°11'1111.7
2014-Oct-17 02:33N 39°33' E 024°23'6312.6
2014-Oct-16 21:33N 38°41' E 025°09'1312.6
2014-Oct-16 20:33N 38°30' E 025°15'1715.9
2014-Oct-16 19:28N 38°14' E 025°24'1716.5
2014-Oct-16 18:27N 37°58' E 025°32'1416.2
2014-Oct-16 17:33N 37°45' E 025°39'1616.3
2014-Oct-16 16:33N 37°30' E 025°48'1716.7
2014-Oct-16 15:33N 37°20' E 026°05'1716.6
2014-Oct-16 14:33N 37°11' E 026°22'1615.9
2014-Oct-16 13:33N 37°01' E 026°38'1616.3
2014-Oct-16 12:33N 36°45' E 026°43'1716.6
2014-Oct-16 11:33N 36°29' E 026°48'1716.5
2014-Oct-16 10:33N 36°17' E 027°02'1616.5
2014-Oct-16 09:33N 36°05' E 027°16'  

Dump ship's entire track history